GW4806 Weather Reports


time (UTC)temp
F
wind
direction
speed
knots
gust
knots
rain 1hr
in
rain 24hr
in
rain mn
in
humidity
%
barometer
mb
20260502204845 62 127 1.7 5.2 0.00 0.00 0.00 30 1013.7
20260502204342 61 112 2.6 4.3 0.00 0.00 0.00 31 1013.7
20260502203839 61 321 2.6 7.8 0.00 0.00 0.00 32 1013.8
20260502203337 61 151 0.0 7.8 0.00 0.00 0.00 31 1013.9
20260502202832 61 294 0.9 2.6 0.00 0.00 0.00 30 1013.8
20260502202330 61 240 1.7 7.0 0.00 0.00 0.00 31 1013.9
20260502201828 60 270 0.0 4.3 0.00 0.00 0.00 33 1014.0
20260502201323 59 135 0.0 2.6 0.00 0.00 0.00 34 1014.0
20260502200820 61 262 1.7 6.1 0.00 0.00 0.00 32 1014.2
20260502200316 60 171 2.6 4.3 0.00 0.00 0.00 31 1014.1
20260502195814 60 212 4.3 7.8 0.00 0.00 0.00 32 1014.5
20260502195310 60 268 4.3 8.7 0.00 0.00 0.00 33 1014.4
20260502194807 60 240 0.9 6.1 0.00 0.00 0.00 31 1014.5
20260502194304 61 209 4.3 6.1 0.00 0.00 0.00 31 1014.5
20260502193800 59 218 4.3 6.1 0.00 0.00 0.00 32 1014.7
20260502193257 60 270 5.2 6.1 0.00 0.00 0.00 31 1014.9
20260502192752 59 160 2.6 6.1 0.00 0.00 0.00 36 1014.8
20260502192249 59 350 0.0 6.1 0.00 0.00 0.00 34 1014.9
20260502191746 57 65 1.7 3.5 0.00 0.00 0.00 40 1014.9
20260502191244 57 90 1.7 5.2 0.00 0.00 0.00 30 1015.1
20260502190741 59 143 0.0 7.8 0.00 0.00 0.00 35 1015.2
20260502190239 59 98 0.0 7.8 0.00 0.00 0.00 32 1015.2
20260502185738 58 105 0.9 7.0 0.00 0.00 0.00 31 1015.3
20260502185235 56 148 1.7 4.3 0.00 0.00 0.00 33 1015.4
20260502184732 57 147 1.7 6.1 0.00 0.00 0.00 32 1015.7
20260502184228 58 326 2.6 7.8 0.00 0.00 0.00 30 1015.6
20260502183724 57 156 3.5 5.2 0.00 0.00 0.00 31 1015.7
20260502183220 57 29 0.0 5.2 0.00 0.00 0.00 31 1015.9
20260502182716 58 317 3.5 4.3 0.00 0.00 0.00 33 1015.8
20260502182211 56 208 1.7 6.1 0.00 0.00 0.00 37 1015.8
20260502181709 57 338 5.2 5.2 0.00 0.00 0.00 37 1016.0
20260502181208 57 235 3.5 8.7 0.00 0.00 0.00 34 1015.9
20260502180705 55 22 2.6 5.2 0.00 0.00 0.00 34 1016.1
20260502180202 56 22 0.0 4.3 0.00 0.00 0.00 32 1016.1
20260502170126 53 174 7.0 7.8 0.00 0.00 0.00 37 1016.9
20260502164113 54 207 3.5 7.0 0.00 0.00 0.00 37 1017.4
20260502163609 55 264 3.5 6.1 0.00 0.00 0.00 40 1017.2
20260502163105 55 296 2.6 2.6 0.00 0.00 0.00 43 1017.3
20260502162602 54 25 2.6 7.0 0.00 0.00 0.00 38 1017.4
20260502162059 53 188 0.0 4.3 0.00 0.00 0.00 39 1017.5
20260502161556 54 149 2.6 9.6 0.00 0.00 0.00 38 1017.7
20260502161054 53 352 1.7 9.6 0.00 0.00 0.00 41 1017.5
20260502160552 54 229 5.2 5.2 0.00 0.00 0.00 37 1017.5
20260502152311 51 340 0.0 4.3 0.00 0.00 0.00 38 1017.6
20260502151808 51 328 3.5 4.3 0.00 0.00 0.00 41 1017.7
20260502151305 51 328 2.6 7.8 0.00 0.00 0.00 42 1017.8
20260502150803 52 277 5.2 10.4 0.00 0.00 0.00 42 1017.9
20260502150259 51 343 0.0 7.0 0.00 0.00 0.00 43 1018.0
20260502130647 45 180 2.6 2.6 0.00 0.00 0.00 60 1018.1
20260502130145 44 217 1.7 4.3 0.00 0.00 0.00 61 1018.1
20260502123631 41 208 1.7 2.6 0.00 0.00 0.00 66 1017.9
20260502123127 40 135 1.7 1.7 0.00 0.00 0.00 68 1018.0
20260502122624 39 160 0.0 1.7 0.00 0.00 0.00 71 1018.0
20260502122121 37 141 2.6 4.3 0.00 0.00 0.00 74 1018.0
20260502121619 35 90 0.9 1.7 0.00 0.00 0.00 80 1018.0
20260502121116 35 102 0.9 1.7 0.00 0.00 0.00 80 1018.1
20260502120612 34 123 1.7 1.7 0.00 0.00 0.00 81 1018.0
20260502120109 34 90 0.0 1.7 0.00 0.00 0.00 81 1018.0
20260502115607 33 106 0.0 0.9 0.00 0.00 0.00 82 1018.2
20260502115102 33 90 0.0 0.9 0.00 0.00 0.00 82 1017.9
20260502114559 33 90 0.0 0.9 0.00 0.00 0.00 82 1017.8
20260502114056 32 112 0.0 1.7 0.00 0.00 0.00 83 1017.9
20260502113554 32 111 0.0 0.0 0.00 0.00 0.00 83 1017.9
20260502113052 32 180 0.0 0.0 0.00 0.00 0.00 83 1017.8
20260502112549 32 144 0.0 0.0 0.00 0.00 0.00 84 1017.7
20260502112047 32 117 0.0 0.0 0.00 0.00 0.00 83 1017.9
20260502111544 32 117 0.0 0.9 0.00 0.00 0.00 84 1017.8
20260502111041 32 66 0.0 0.9 0.00 0.00 0.00 83 1017.9
20260502110539 32 145 0.0 1.7 0.00 0.00 0.00 83 1017.6
20260502110036 32 151 0.0 0.0 0.00 0.00 0.00 83 1017.7
20260502105533 32 151 0.0 0.0 0.00 0.00 0.00 83 1017.6
20260502105031 32 157 0.0 0.9 0.00 0.00 0.00 83 1017.7
20260502104528 32 151 0.0 0.9 0.00 0.00 0.00 83 1017.8
20260502104025 32 145 0.0 0.9 0.00 0.00 0.00 82 1017.6
20260502103523 32 120 0.0 0.0 0.00 0.00 0.00 83 1017.5
20260502103021 32 120 0.0 0.0 0.00 0.00 0.00 82 1017.6
20260502102517 32 157 0.0 0.0 0.00 0.00 0.00 82 1017.7
20260502102014 32 157 0.0 0.9 0.00 0.00 0.00 82 1017.7
20260502101512 32 166 0.0 0.9 0.00 0.00 0.00 81 1017.7
20260502101010 32 98 0.0 0.0 0.00 0.00 0.00 81 1017.8
20260502100508 32 97 0.0 0.9 0.00 0.00 0.00 82 1017.9
20260502091443 33 157 0.0 0.0 0.00 0.00 0.00 79 1018.0
20260502090940 33 123 0.0 0.9 0.00 0.00 0.00 79 1017.7
20260502090437 33 151 0.0 0.9 0.00 0.00 0.00 79 1018.0
20260502071331 35 90 0.9 0.9 0.00 0.00 0.00 76 1018.0
20260502070830 35 90 0.0 0.9 0.00 0.00 0.00 76 1018.0
20260502070327 35 106 0.0 0.0 0.00 0.00 0.00 75 1018.0
20260502065826 36 106 0.0 0.9 0.00 0.00 0.00 75 1017.9
20260502065323 36 75 0.0 0.9 0.00 0.00 0.00 75 1018.0
20260502064821 36 74 0.0 0.0 0.00 0.00 0.00 74 1018.1
20260502064319 36 66 0.0 0.0 0.00 0.00 0.00 74 1018.0
20260502063816 36 82 0.0 0.9 0.00 0.00 0.00 75 1018.3
20260502063314 36 106 0.0 0.9 0.00 0.00 0.00 76 1018.2
20260502062811 36 74 0.0 0.9 0.00 0.00 0.00 75 1018.2
20260502062308 36 57 0.0 0.9 0.00 0.00 0.00 75 1018.2
20260502061807 36 75 0.0 0.0 0.00 0.00 0.00 76 1018.1
20260502061304 36 98 0.0 0.9 0.00 0.00 0.00 72 1018.1
20260502060759 36 106 0.0 0.0 0.00 0.00 0.00 74 1018.1
20260502060255 36 106 0.0 0.9 0.00 0.00 0.00 73 1018.1
20260502055753 37 69 0.9 0.9 0.00 0.00 0.00 72 1018.0
20260502055250 37 90 0.0 0.0 0.00 0.00 0.00 71 1018.1
20260502054750 37 111 0.0 0.9 0.00 0.00 0.00 71 1017.9
20260502054247 37 114 0.0 0.9 0.00 0.00 0.00 70 1018.1
20260502053744 37 60 0.0 0.9 0.00 0.00 0.00 70 1018.2
20260502053241 37 54 0.0 1.7 0.00 0.00 0.00 70 1018.0
20260502052739 37 74 0.0 0.0 0.00 0.00 0.00 69 1017.8
20260502052237 37 90 0.0 0.9 0.00 0.00 0.00 69 1017.7
20260502051735 37 90 0.0 0.9 0.00 0.00 0.00 68 1018.0
20260502051233 37 83 0.0 0.9 0.00 0.00 0.00 68 1017.8
20260502050729 37 74 0.0 0.9 0.00 0.00 0.00 66 1018.0
20260502050225 38 74 0.0 0.0 0.00 0.00 0.00 66 1017.9
20260502045723 38 90 0.9 0.9 0.00 0.00 0.00 64 1018.0
20260502045219 38 74 0.0 0.9 0.00 0.00 0.00 66 1017.9
20260502044716 38 74 0.0 0.0 0.00 0.00 0.00 66 1017.7
20260502044212 38 66 0.0 0.9 0.00 0.00 0.00 64 1017.9
20260502043710 39 23 0.0 0.9 0.00 0.00 0.00 64 1017.9
20260502043208 39 66 0.9 0.9 0.00 0.00 0.00 64 1017.9
20260502042707 39 90 0.0 0.9 0.00 0.00 0.00 63 1017.8
20260502042204 39 74 0.0 0.0 0.00 0.00 0.00 65 1017.7
20260502041702 40 66 0.9 0.9 0.00 0.00 0.00 65 1017.6
20260502041159 40 49 0.9 1.7 0.00 0.00 0.00 64 1017.8
20260502040655 40 90 0.0 0.9 0.00 0.00 0.00 61 1017.8
20260502040153 40 82 0.0 0.9 0.00 0.00 0.00 60 1017.8
20260502035649 40 74 0.0 0.0 0.00 0.00 0.00 61 1017.7
20260502035146 41 74 0.0 0.9 0.00 0.00 0.00 64 1017.8
20260502034643 41 60 0.0 1.7 0.00 0.00 0.00 63 1017.8
20260502034142 41 78 0.0 1.7 0.00 0.00 0.00 62 1017.9
20260502033639 41 74 0.0 0.9 0.00 0.00 0.00 62 1017.8
20260502033137 42 75 0.0 0.9 0.00 0.00 0.00 61 1017.9
20260502032632 42 60 0.0 0.9 0.00 0.00 0.00 59 1017.9
20260502032129 42 66 0.0 0.9 0.00 0.00 0.00 59 1017.8
20260502031627 43 66 0.0 0.9 0.00 0.00 0.00 57 1017.8
20260502031125 43 74 0.0 0.0 0.00 0.00 0.00 56 1017.8
20260502030624 43 74 0.0 0.0 0.00 0.00 0.00 54 1017.7
20260502030121 44 66 0.0 0.9 0.00 0.00 0.00 55 1017.8
20260502025618 44 75 0.0 0.0 0.00 0.00 0.00 54 1017.7
20260502025116 45 54 0.0 1.7 0.00 0.00 0.00 51 1017.5
20260502024614 45 74 0.0 0.9 0.00 0.00 0.00 50 1017.6
20260502024111 46 66 0.0 0.9 0.00 0.00 0.00 50 1017.4
20260502024014 46 82 0.0 0.9 0.00 0.00 0.00 49 1017.5
20260502023511 46 66 0.0 1.7 0.00 0.00 0.00 47 1017.5
20260502023008 46 6 0.0 0.9 0.00 0.00 0.00 47 1017.2
20260502022505 47 32 0.0 0.9 0.00 0.00 0.00 48 1017.6
20260502022003 47 57 0.0 0.9 0.00 0.00 0.00 47 1017.4
20260502021459 47 49 0.0 0.9 0.00 0.00 0.00 46 1017.3
20260502020956 47 90 0.0 0.9 0.00 0.00 0.00 44 1017.5
20260502020454 48 66 0.9 1.7 0.00 0.00 0.00 45 1017.4
20260502015950 48 36 0.0 2.6 0.00 0.00 0.00 42 1017.3
20260502015449 48 66 0.0 0.9 0.00 0.00 0.00 42 1017.3
20260502014945 48 98 0.0 1.7 0.00 0.00 0.00 41 1017.2
20260502014442 48 54 0.0 1.7 0.00 0.00 0.00 43 1017.1
20260502013938 48 98 0.9 1.7 0.00 0.00 0.00 43 1017.0
20260502013434 48 57 0.0 1.7 0.00 0.00 0.00 42 1016.9
20260502012930 48 52 1.7 1.7 0.00 0.00 0.00 44 1016.8
20260502012428 48 57 0.9 1.7 0.00 0.00 0.00 41 1016.9
20260502011926 48 40 0.0 1.7 0.00 0.00 0.00 42 1016.9
20260502011421 48 90 0.0 1.7 0.00 0.00 0.00 40 1016.8
20260502010918 49 0 0.0 2.6 0.00 0.00 0.00 38 1016.7
20260502010328 49 63 0.0 2.6 0.00 0.00 0.00 41 1016.8
20260502005825 49 45 0.0 3.5 0.00 0.00 0.00 39 1016.7
20260502005323 49 59 1.7 2.6 0.00 0.00 0.00 38 1016.7
20260502004820 50 63 1.7 2.6 0.00 0.00 0.00 36 1016.5
20260502004548 50 32 0.9 4.3 0.00 0.00 0.00 40 1016.8
20260502004045 50 16 1.7 2.6 0.00 0.00 0.00 36 1016.3
20260502003543 50 32 2.6 2.6 0.00 0.00 0.00 37 1016.5
20260502003039 50 338 1.7 4.3 0.00 0.00 0.00 36 1016.3
20260502002536 50 339 0.0 2.6 0.00 0.00 0.00 38 1016.2
20260502002033 50 334 2.6 5.2 0.00 0.00 0.00 35 1016.3
20260502001531 50 29 1.7 2.6 0.00 0.00 0.00 36 1016.3
20260502001028 50 45 1.7 3.5 0.00 0.00 0.00 39 1016.1
20260502000526 51 244 2.6 3.5 0.00 0.00 0.00 36 1016.3
20260502000023 51 338 0.0 6.1 0.00 0.00 0.00 33 1016.2
20260501235518 51 84 1.7 3.5 0.00 0.00 0.00 38 1016.3
20260501235107 51 7 0.9 2.6 0.00 0.00 0.00 35 1016.2
20260501234603 51 324 1.7 3.5 0.00 0.00 0.00 38 1016.2
20260501234101 51 71 2.6 2.6 0.00 0.00 0.00 37 1016.3
20260501233559 52 335 0.0 4.3 0.00 0.00 0.00 34 1016.1
20260501233055 51 21 1.7 4.3 0.00 0.00 0.00 36 1016.2
20260501232551 51 28 1.7 4.3 0.00 0.00 0.00 37 1016.2
20260501232049 51 352 2.6 4.3 0.00 0.00 0.00 38 1016.1
20260501231547 51 12 0.0 3.5 0.00 0.00 0.00 35 1016.2
20260501231045 52 28 2.6 5.2 0.00 0.00 0.00 35 1016.1
20260501230543 51 350 3.5 7.0 0.00 0.00 0.00 33 1016.5
20260501230041 51 0 0.9 4.3 0.00 0.00 0.00 34 1016.2
20260501225538 51 0 1.7 4.3 0.00 0.00 0.00 34 1016.0
20260501225034 53 315 1.7 4.3 0.00 0.00 0.00 32 1016.2
20260501224532 53 61 1.7 3.5 0.00 0.00 0.00 36 1016.1
20260501224029 53 81 2.6 5.2 0.00 0.00 0.00 34 1016.2
20260501223525 51 249 2.6 4.3 0.00 0.00 0.00 33 1016.1
20260501223345 52 339 1.7 5.2 0.00 0.00 0.00 33 1016.2
20260501222840 51 3 2.6 3.5 0.00 0.00 0.00 32 1016.1
20260501222338 52 343 5.2 7.0 0.00 0.00 0.00 32 1016.2
20260501221834 50 358 2.6 6.1 0.00 0.00 0.00 34 1016.3
20260501221332 51 277 0.0 4.3 0.00 0.00 0.00 34 1016.1
20260501220830 51 12 0.9 6.1 0.00 0.00 0.00 33 1016.0
20260501220327 50 334 2.6 5.2 0.00 0.00 0.00 35 1016.0
20260501215823 51 0 2.6 8.7 0.00 0.00 0.00 35 1016.2
20260501215651 52 273 2.6 5.2 0.00 0.00 0.00 33 1016.2
20260501215146 52 357 2.6 4.3 0.00 0.00 0.00 35 1016.1
20260501214641 51 32 0.0 8.7 0.00 0.00 0.00 33 1016.0
20260501214137 50 36 1.7 4.3 0.00 0.00 0.00 36 1015.9
20260501213634 52 325 5.2 7.0 0.00 0.00 0.00 34 1015.9
20260501213130 52 290 1.7 6.1 0.00 0.00 0.00 33 1016.0
20260501212627 51 3 2.6 5.2 0.00 0.00 0.00 36 1016.0
20260501212123 49 341 1.7 2.6 0.00 0.00 0.00 39 1016.0
20260501211620 50 54 0.0 6.1 0.00 0.00 0.00 38 1016.3
20260501211118 51 82 0.0 4.3 0.00 0.00 0.00 37 1016.0
20260501210615 48 65 1.7 2.6 0.00 0.00 0.00 43 1016.1
20260501210111 50 252 0.0 5.2 0.00 0.00 0.00 37 1016.2
20260501205607 51 49 2.6 4.3 0.00 0.00 0.00 37 1016.2